Time,TemperatureF,DewpointF,PressureIn,WindDirection,WindDirectionDegrees,WindSpeedMPH,WindSpeedGustMPH,Humidity,HourlyPrecipIn,Conditions,Clouds,dailyrainin,SoftwareType,DateUTC
2013-12-19 00:00:00,28.3,22.9,30.30,SW,218,0.0,0.0,80,0.00,,---,0.00,VWS V14.01,2013-12-19 05:00:00,
2013-12-19 00:04:00,28.3,22.9,30.30,SW,218,0.0,0.0,80,0.00,,---,0.00,VWS V14.01,2013-12-19 05:04:00,
2013-12-19 00:05:00,28.3,22.9,30.30,SW,218,0.0,0.0,80,0.00,,---,0.00,VWS V14.01,2013-12-19 05:05:00,
2013-12-19 00:09:00,28.2,22.8,30.30,SW,218,0.0,0.0,80,0.00,,---,0.00,VWS V14.01,2013-12-19 05:09:00,
2013-12-19 00:10:00,28.2,22.8,30.30,SW,218,0.0,0.0,80,0.00,,---,0.00,VWS V14.01,2013-12-19 05:10:00,
2013-12-19 00:14:00,28.0,22.9,30.30,SW,218,0.0,1.0,81,0.00,,---,0.00,VWS V14.01,2013-12-19 05:14:00,
2013-12-19 00:15:00,28.0,22.9,30.30,SW,218,0.0,1.0,81,0.00,,---,0.00,VWS V14.01,2013-12-19 05:15:00,
2013-12-19 00:19:00,28.0,22.9,30.30,SW,218,0.0,0.0,81,0.00,,---,0.00,VWS V14.01,2013-12-19 05:19:00,
2013-12-19 00:20:00,28.0,22.9,30.30,SW,218,0.0,0.0,81,0.00,,---,0.00,VWS V14.01,2013-12-19 05:20:00,
2013-12-19 00:24:00,27.9,22.8,30.30,SW,218,0.0,0.0,81,0.00,,---,0.00,VWS V14.01,2013-12-19 05:24:00,
2013-12-19 00:25:00,27.9,22.8,30.30,SW,218,0.0,0.0,81,0.00,,---,0.00,VWS V14.01,2013-12-19 05:25:00,
2013-12-19 00:29:00,27.8,22.7,30.30,SW,218,0.0,0.0,81,0.00,,---,0.00,VWS V14.01,2013-12-19 05:29:00,
2013-12-19 00:30:00,27.8,22.7,30.30,SW,218,0.0,0.0,81,0.00,,---,0.00,VWS V14.01,2013-12-19 05:30:00,
2013-12-19 00:34:00,27.9,22.8,30.30,SW,218,0.0,0.0,81,0.00,,---,0.00,VWS V14.01,2013-12-19 05:34:00,
2013-12-19 00:35:00,27.9,22.8,30.30,SW,218,0.0,0.0,81,0.00,,---,0.00,VWS V14.01,2013-12-19 05:35:00,
2013-12-19 00:39:00,28.0,22.9,30.30,SW,218,0.0,0.0,81,0.00,,---,0.00,VWS V14.01,2013-12-19 05:39:00,
2013-12-19 00:40:00,28.0,22.9,30.30,SW,218,0.0,0.0,81,0.00,,---,0.00,VWS V14.01,2013-12-19 05:40:00,
2013-12-19 00:44:00,28.0,22.9,30.30,SW,218,0.0,0.0,81,0.00,,---,0.00,VWS V14.01,2013-12-19 05:44:00,
2013-12-19 00:45:00,28.0,22.9,30.30,SW,218,0.0,0.0,81,0.00,,---,0.00,VWS V14.01,2013-12-19 05:45:00,
2013-12-19 00:49:00,28.0,22.9,30.30,SW,218,0.0,0.0,81,0.00,,---,0.00,VWS V14.01,2013-12-19 05:49:00,
2013-12-19 00:50:00,28.0,22.9,30.30,SW,218,0.0,0.0,81,0.00,,---,0.00,VWS V14.01,2013-12-19 05:50:00,
2013-12-19 00:54:00,28.0,22.9,30.29,SW,218,0.0,0.0,81,0.00,,---,0.00,VWS V14.01,2013-12-19 05:54:00,
2013-12-19 00:55:00,28.0,22.9,30.29,SW,218,0.0,0.0,81,0.00,,---,0.00,VWS V14.01,2013-12-19 05:55:00,
2013-12-19 00:59:00,27.9,22.8,30.30,SW,218,0.0,0.0,81,0.00,,---,0.00,VWS V14.01,2013-12-19 05:59:00,
2013-12-19 01:00:00,27.9,22.8,30.30,SW,218,0.0,0.0,81,0.00,,---,0.00,VWS V14.01,2013-12-19 06:00:00,
2013-12-19 01:05:00,27.7,22.6,30.30,SW,218,0.0,0.0,81,0.00,,---,0.00,VWS V14.01,2013-12-19 06:05:00,
2013-12-19 01:09:00,27.5,22.5,30.30,SW,218,0.0,0.0,81,0.00,,---,0.00,VWS V14.01,2013-12-19 06:09:00,
2013-12-19 01:10:00,27.5,22.5,30.30,SW,218,0.0,0.0,81,0.00,,---,0.00,VWS V14.01,2013-12-19 06:10:00,
2013-12-19 01:14:00,27.5,22.5,30.30,SW,218,0.0,0.0,81,0.00,,---,0.00,VWS V14.01,2013-12-19 06:14:00,
2013-12-19 01:15:00,27.5,22.5,30.30,SW,218,0.0,0.0,81,0.00,,---,0.00,VWS V14.01,2013-12-19 06:15:00,
2013-12-19 01:19:00,27.5,22.5,30.30,SW,218,0.0,0.0,81,0.00,,---,0.00,VWS V14.01,2013-12-19 06:19:00,
2013-12-19 01:20:00,27.5,22.5,30.30,SW,218,0.0,0.0,81,0.00,,---,0.00,VWS V14.01,2013-12-19 06:20:00,
2013-12-19 01:24:00,27.7,22.9,30.30,SW,218,0.0,0.0,82,0.00,,---,0.00,VWS V14.01,2013-12-19 06:24:00,
2013-12-19 01:25:00,27.7,22.9,30.30,SW,218,0.0,0.0,82,0.00,,---,0.00,VWS V14.01,2013-12-19 06:25:00,
2013-12-19 01:29:00,27.8,23.0,30.30,SW,218,0.0,0.0,82,0.00,,---,0.00,VWS V14.01,2013-12-19 06:29:00,
2013-12-19 01:30:00,27.8,23.0,30.30,SW,218,0.0,0.0,82,0.00,,---,0.00,VWS V14.01,2013-12-19 06:30:00,
2013-12-19 01:34:00,27.8,23.0,30.30,SW,218,0.0,0.0,82,0.00,,---,0.00,VWS V14.01,2013-12-19 06:34:00,
2013-12-19 01:35:00,27.8,23.0,30.30,SW,218,0.0,0.0,82,0.00,,---,0.00,VWS V14.01,2013-12-19 06:35:00,
2013-12-19 01:39:00,27.9,23.1,30.30,SW,218,0.0,0.0,82,0.00,,---,0.00,VWS V14.01,2013-12-19 06:39:00,
2013-12-19 01:40:00,27.9,23.1,30.30,SW,218,0.0,0.0,82,0.00,,---,0.00,VWS V14.01,2013-12-19 06:40:00,
2013-12-19 01:44:00,27.7,23.2,30.30,SW,218,0.0,0.0,83,0.00,,---,0.00,VWS V14.01,2013-12-19 06:44:00,
2013-12-19 01:45:00,27.7,23.2,30.30,SW,218,0.0,0.0,83,0.00,,---,0.00,VWS V14.01,2013-12-19 06:45:00,
2013-12-19 01:49:00,27.6,23.1,30.30,SW,218,0.0,0.0,83,0.00,,---,0.00,VWS V14.01,2013-12-19 06:49:00,
2013-12-19 01:50:00,27.6,23.1,30.30,SW,218,0.0,0.0,83,0.00,,---,0.00,VWS V14.01,2013-12-19 06:50:00,
2013-12-19 01:54:00,27.5,22.7,30.30,SW,218,0.0,0.0,82,0.00,,---,0.00,VWS V14.01,2013-12-19 06:54:00,
2013-12-19 01:55:00,27.5,22.7,30.30,SW,218,0.0,0.0,82,0.00,,---,0.00,VWS V14.01,2013-12-19 06:55:00,
2013-12-19 01:59:00,27.4,22.9,30.29,SW,218,0.0,0.0,83,0.00,,---,0.00,VWS V14.01,2013-12-19 06:59:00,
2013-12-19 02:00:00,27.4,22.9,30.29,SW,218,0.0,0.0,83,0.00,,---,0.00,VWS V14.01,2013-12-19 07:00:00,
2013-12-19 02:05:00,27.3,23.1,30.30,SW,218,0.0,0.0,84,0.00,,---,0.00,VWS V14.01,2013-12-19 07:05:00,
2013-12-19 02:09:00,27.2,23.0,30.30,SW,218,0.0,0.0,84,0.00,,---,0.00,VWS V14.01,2013-12-19 07:09:00,
2013-12-19 02:10:00,27.2,23.0,30.30,SW,218,0.0,0.0,84,0.00,,---,0.00,VWS V14.01,2013-12-19 07:10:00,
2013-12-19 02:14:00,27.1,22.9,30.30,SW,218,0.0,0.0,84,0.00,,---,0.00,VWS V14.01,2013-12-19 07:14:00,
2013-12-19 02:15:00,27.1,22.9,30.30,SW,218,0.0,0.0,84,0.00,,---,0.00,VWS V14.01,2013-12-19 07:15:00,
2013-12-19 02:20:00,27.1,22.9,30.30,SW,218,0.0,0.0,84,0.00,,---,0.00,VWS V14.01,2013-12-19 07:20:00,
2013-12-19 02:24:00,27.1,22.9,30.30,SW,218,0.0,0.0,84,0.00,,---,0.00,VWS V14.01,2013-12-19 07:24:00,
2013-12-19 02:25:00,27.1,22.9,30.30,SW,218,0.0,0.0,84,0.00,,---,0.00,VWS V14.01,2013-12-19 07:25:00,
2013-12-19 02:29:00,27.1,22.9,30.31,SW,218,0.0,0.0,84,0.00,,---,0.00,VWS V14.01,2013-12-19 07:29:00,
2013-12-19 02:30:00,27.1,22.9,30.31,SW,218,0.0,0.0,84,0.00,,---,0.00,VWS V14.01,2013-12-19 07:30:00,
2013-12-19 02:34:00,27.1,22.9,30.30,SW,218,0.0,0.0,84,0.00,,---,0.00,VWS V14.01,2013-12-19 07:34:00,
2013-12-19 02:35:00,27.1,22.9,30.30,SW,218,0.0,0.0,84,0.00,,---,0.00,VWS V14.01,2013-12-19 07:35:00,
2013-12-19 02:39:00,27.2,23.0,30.30,SW,218,0.0,0.0,84,0.00,,---,0.00,VWS V14.01,2013-12-19 07:39:00,
2013-12-19 02:40:00,27.2,23.0,30.30,SW,218,0.0,0.0,84,0.00,,---,0.00,VWS V14.01,2013-12-19 07:40:00,
2013-12-19 02:44:00,27.2,23.0,30.30,SW,218,0.0,0.0,84,0.00,,---,0.00,VWS V14.01,2013-12-19 07:44:00,
2013-12-19 02:45:00,27.2,23.0,30.30,SW,218,0.0,0.0,84,0.00,,---,0.00,VWS V14.01,2013-12-19 07:45:00,
2013-12-19 02:50:00,27.1,22.6,30.30,SW,218,0.0,0.0,83,0.00,,---,0.00,VWS V14.01,2013-12-19 07:50:00,
2013-12-19 02:54:00,26.9,22.7,30.30,SW,218,0.0,0.0,84,0.00,,---,0.00,VWS V14.01,2013-12-19 07:54:00,
2013-12-19 02:55:00,26.9,22.7,30.30,SW,218,0.0,0.0,84,0.00,,---,0.00,VWS V14.01,2013-12-19 07:55:00,
2013-12-19 03:00:00,26.8,22.6,30.30,SW,218,0.0,0.0,84,0.00,,---,0.00,VWS V14.01,2013-12-19 08:00:00,
2013-12-19 03:04:00,26.7,22.5,30.31,SW,218,0.0,0.0,84,0.00,,---,0.00,VWS V14.01,2013-12-19 08:04:00,
2013-12-19 03:05:00,26.7,22.5,30.31,SW,218,0.0,0.0,84,0.00,,---,0.00,VWS V14.01,2013-12-19 08:05:00,
2013-12-19 03:09:00,26.5,22.3,30.31,SW,218,0.0,0.0,84,0.00,,---,0.00,VWS V14.01,2013-12-19 08:09:00,
2013-12-19 03:10:00,26.5,22.3,30.31,SW,218,0.0,0.0,84,0.00,,---,0.00,VWS V14.01,2013-12-19 08:10:00,
2013-12-19 03:14:00,26.4,22.5,30.30,SW,218,0.0,0.0,85,0.00,,---,0.00,VWS V14.01,2013-12-19 08:14:00,
2013-12-19 03:15:00,26.4,22.5,30.30,SW,218,0.0,0.0,85,0.00,,---,0.00,VWS V14.01,2013-12-19 08:15:00,
2013-12-19 03:19:00,26.4,22.8,30.30,SW,218,0.0,0.0,86,0.00,,---,0.00,VWS V14.01,2013-12-19 08:19:00,
2013-12-19 03:20:00,26.4,22.8,30.30,SW,218,0.0,0.0,86,0.00,,---,0.00,VWS V14.01,2013-12-19 08:20:00,
2013-12-19 03:25:00,26.5,22.9,30.30,SW,218,0.0,0.0,86,0.00,,---,0.00,VWS V14.01,2013-12-19 08:25:00,
2013-12-19 03:29:00,26.4,22.8,30.31,SW,218,0.0,0.0,86,0.00,,---,0.00,VWS V14.01,2013-12-19 08:29:00,
2013-12-19 03:30:00,26.4,22.8,30.31,SW,218,0.0,0.0,86,0.00,,---,0.00,VWS V14.01,2013-12-19 08:30:00,
2013-12-19 03:34:00,26.4,22.8,30.31,SW,218,0.0,0.0,86,0.00,,---,0.00,VWS V14.01,2013-12-19 08:34:00,
2013-12-19 03:35:00,26.4,22.8,30.31,SW,218,0.0,0.0,86,0.00,,---,0.00,VWS V14.01,2013-12-19 08:35:00,
2013-12-19 03:39:00,26.3,22.7,30.31,SW,218,0.0,0.0,86,0.00,,---,0.00,VWS V14.01,2013-12-19 08:39:00,
2013-12-19 03:40:00,26.3,22.7,30.31,SW,218,0.0,0.0,86,0.00,,---,0.00,VWS V14.01,2013-12-19 08:40:00,
2013-12-19 03:44:00,26.3,22.7,30.31,SW,218,0.0,0.0,86,0.00,,---,0.00,VWS V14.01,2013-12-19 08:44:00,
2013-12-19 03:45:00,26.3,22.7,30.31,SW,218,0.0,0.0,86,0.00,,---,0.00,VWS V14.01,2013-12-19 08:45:00,
2013-12-19 03:49:00,26.2,22.9,30.30,SW,218,0.0,0.0,87,0.00,,---,0.00,VWS V14.01,2013-12-19 08:49:00,
2013-12-19 03:50:00,26.2,22.9,30.30,SW,218,0.0,0.0,87,0.00,,---,0.00,VWS V14.01,2013-12-19 08:50:00,
2013-12-19 03:54:00,26.2,22.9,30.30,SW,218,0.0,0.0,87,0.00,,---,0.00,VWS V14.01,2013-12-19 08:54:00,
2013-12-19 03:55:00,26.2,22.9,30.30,SW,218,0.0,0.0,87,0.00,,---,0.00,VWS V14.01,2013-12-19 08:55:00,
2013-12-19 03:59:00,26.1,22.8,30.30,SW,218,0.0,0.0,87,0.00,,---,0.00,VWS V14.01,2013-12-19 08:59:00,
2013-12-19 04:00:00,26.1,22.8,30.30,SW,218,0.0,0.0,87,0.00,,---,0.00,VWS V14.01,2013-12-19 09:00:00,
2013-12-19 04:04:00,26.1,22.5,30.30,SW,218,0.0,1.0,86,0.00,,---,0.00,VWS V14.01,2013-12-19 09:04:00,
2013-12-19 04:05:00,26.1,22.5,30.30,SW,218,0.0,1.0,86,0.00,,---,0.00,VWS V14.01,2013-12-19 09:05:00,
2013-12-19 04:09:00,26.1,22.5,30.30,SW,218,0.0,1.0,86,0.00,,---,0.00,VWS V14.01,2013-12-19 09:09:00,
2013-12-19 04:10:00,26.1,22.5,30.30,SW,218,0.0,1.0,86,0.00,,---,0.00,VWS V14.01,2013-12-19 09:10:00,
2013-12-19 04:15:00,26.3,22.7,30.30,SW,218,0.0,0.0,86,0.00,,---,0.00,VWS V14.01,2013-12-19 09:15:00,
2013-12-19 04:19:00,26.4,22.8,30.30,SW,218,0.0,0.0,86,0.00,,---,0.00,VWS V14.01,2013-12-19 09:19:00,
2013-12-19 04:20:00,26.4,22.8,30.30,SW,218,0.0,0.0,86,0.00,,---,0.00,VWS V14.01,2013-12-19 09:20:00,
2013-12-19 04:24:00,26.5,22.3,30.30,SW,218,0.0,1.0,84,0.00,,---,0.00,VWS V14.01,2013-12-19 09:24:00,
2013-12-19 04:25:00,26.5,22.3,30.30,SW,218,0.0,1.0,84,0.00,,---,0.00,VWS V14.01,2013-12-19 09:25:00,
2013-12-19 04:30:00,26.8,22.6,30.30,SW,218,0.0,0.0,84,0.00,,---,0.00,VWS V14.01,2013-12-19 09:30:00,
2013-12-19 04:34:00,26.9,22.4,30.30,SW,218,0.0,0.0,83,0.00,,---,0.00,VWS V14.01,2013-12-19 09:34:00,
2013-12-19 04:35:00,26.9,22.4,30.30,SW,218,0.0,0.0,83,0.00,,---,0.00,VWS V14.01,2013-12-19 09:35:00,
2013-12-19 04:39:00,27.0,22.2,30.30,SW,218,0.0,1.0,82,0.00,,---,0.00,VWS V14.01,2013-12-19 09:39:00,
2013-12-19 04:40:00,27.0,22.2,30.30,SW,218,0.0,1.0,82,0.00,,---,0.00,VWS V14.01,2013-12-19 09:40:00,
2013-12-19 04:44:00,27.1,22.6,30.30,SW,218,1.0,1.0,83,0.00,,---,0.00,VWS V14.01,2013-12-19 09:44:00,
2013-12-19 04:45:00,27.1,22.6,30.30,SW,218,1.0,1.0,83,0.00,,---,0.00,VWS V14.01,2013-12-19 09:45:00,
2013-12-19 04:49:00,27.2,22.4,30.30,SW,218,0.0,2.0,82,0.00,,---,0.00,VWS V14.01,2013-12-19 09:49:00,
2013-12-19 04:50:00,27.2,22.4,30.30,SW,218,0.0,2.0,82,0.00,,---,0.00,VWS V14.01,2013-12-19 09:50:00,
2013-12-19 04:54:00,27.3,22.8,30.30,SW,218,0.0,0.0,83,0.00,,---,0.00,VWS V14.01,2013-12-19 09:54:00,
2013-12-19 04:55:00,27.3,22.8,30.30,SW,218,0.0,0.0,83,0.00,,---,0.00,VWS V14.01,2013-12-19 09:55:00,
2013-12-19 05:00:00,27.3,22.8,30.30,SW,218,0.0,0.0,83,0.00,,---,0.00,VWS V14.01,2013-12-19 10:00:00,
2013-12-19 05:04:00,27.3,22.2,30.30,SW,218,0.0,1.0,81,0.00,,---,0.00,VWS V14.01,2013-12-19 10:04:00,
2013-12-19 05:05:00,27.3,22.2,30.30,SW,218,0.0,1.0,81,0.00,,---,0.00,VWS V14.01,2013-12-19 10:05:00,
2013-12-19 05:09:00,27.4,22.6,30.30,SW,218,0.0,0.0,82,0.00,,---,0.00,VWS V14.01,2013-12-19 10:09:00,
2013-12-19 05:10:00,27.4,22.6,30.30,SW,218,0.0,0.0,82,0.00,,---,0.00,VWS V14.01,2013-12-19 10:10:00,
2013-12-19 05:14:00,27.3,22.8,30.30,SW,218,0.0,0.0,83,0.00,,---,0.00,VWS V14.01,2013-12-19 10:14:00,
2013-12-19 05:15:00,27.3,22.8,30.30,SW,218,0.0,0.0,83,0.00,,---,0.00,VWS V14.01,2013-12-19 10:15:00,
2013-12-19 05:19:00,27.3,22.2,30.30,SW,218,0.0,0.0,81,0.00,,---,0.00,VWS V14.01,2013-12-19 10:19:00,
2013-12-19 05:20:00,27.3,22.2,30.30,SW,218,0.0,0.0,81,0.00,,---,0.00,VWS V14.01,2013-12-19 10:20:00,
2013-12-19 05:25:00,27.4,22.6,30.30,SW,218,0.0,0.0,82,0.00,,---,0.00,VWS V14.01,2013-12-19 10:25:00,
2013-12-19 05:29:00,27.4,22.4,30.30,SW,218,0.0,0.0,81,0.00,,---,0.00,VWS V14.01,2013-12-19 10:29:00,
2013-12-19 05:30:00,27.4,22.4,30.30,SW,218,0.0,0.0,81,0.00,,---,0.00,VWS V14.01,2013-12-19 10:30:00,
2013-12-19 05:35:00,27.4,22.6,30.30,SW,218,0.0,0.0,82,0.00,,---,0.00,VWS V14.01,2013-12-19 10:35:00,
2013-12-19 05:39:00,27.3,22.2,30.30,SW,218,0.0,0.0,81,0.00,,---,0.00,VWS V14.01,2013-12-19 10:39:00,
2013-12-19 05:40:00,27.3,22.2,30.30,SW,218,0.0,0.0,81,0.00,,---,0.00,VWS V14.01,2013-12-19 10:40:00,
2013-12-19 05:45:00,27.3,22.2,30.30,SW,218,0.0,0.0,81,0.00,,---,0.00,VWS V14.01,2013-12-19 10:45:00,
2013-12-19 05:49:00,27.3,22.8,30.30,SW,218,0.0,0.0,83,0.00,,---,0.00,VWS V14.01,2013-12-19 10:49:00,
2013-12-19 05:50:00,27.3,22.8,30.30,SW,218,0.0,0.0,83,0.00,,---,0.00,VWS V14.01,2013-12-19 10:50:00,
2013-12-19 05:54:00,27.2,22.7,30.30,SW,218,0.0,0.0,83,0.00,,---,0.00,VWS V14.01,2013-12-19 10:54:00,
2013-12-19 05:55:00,27.2,22.7,30.30,SW,218,0.0,0.0,83,0.00,,---,0.00,VWS V14.01,2013-12-19 10:55:00,
2013-12-19 05:59:00,27.1,22.6,30.30,SW,218,0.0,0.0,83,0.00,,---,0.00,VWS V14.01,2013-12-19 10:59:00,
2013-12-19 06:00:00,27.1,22.6,30.30,SW,218,0.0,0.0,83,0.00,,---,0.00,VWS V14.01,2013-12-19 11:00:00,
2013-12-19 06:05:00,27.0,22.5,30.30,SW,218,0.0,0.0,83,0.00,,---,0.00,VWS V14.01,2013-12-19 11:05:00,
2013-12-19 06:09:00,27.0,22.8,30.30,SW,218,0.0,0.0,84,0.00,,---,0.00,VWS V14.01,2013-12-19 11:09:00,
2013-12-19 06:10:00,27.0,22.8,30.30,SW,218,0.0,0.0,84,0.00,,---,0.00,VWS V14.01,2013-12-19 11:10:00,
2013-12-19 06:14:00,27.0,22.8,30.31,SW,218,0.0,0.0,84,0.00,,---,0.00,VWS V14.01,2013-12-19 11:14:00,
2013-12-19 06:15:00,27.0,22.8,30.31,SW,218,0.0,0.0,84,0.00,,---,0.00,VWS V14.01,2013-12-19 11:15:00,
2013-12-19 06:19:00,26.9,22.4,30.31,SW,218,0.0,0.0,83,0.00,,---,0.00,VWS V14.01,2013-12-19 11:19:00,
2013-12-19 06:20:00,26.9,22.4,30.31,SW,218,0.0,0.0,83,0.00,,---,0.00,VWS V14.01,2013-12-19 11:20:00,
2013-12-19 06:24:00,26.8,22.3,30.31,SW,218,0.0,0.0,83,0.00,,---,0.00,VWS V14.01,2013-12-19 11:24:00,
2013-12-19 06:25:00,26.8,22.3,30.31,SW,218,0.0,0.0,83,0.00,,---,0.00,VWS V14.01,2013-12-19 11:25:00,
2013-12-19 06:29:00,26.8,22.3,30.31,SW,218,0.0,0.0,83,0.00,,---,0.00,VWS V14.01,2013-12-19 11:29:00,
2013-12-19 06:30:00,26.8,22.3,30.31,SW,218,0.0,0.0,83,0.00,,---,0.00,VWS V14.01,2013-12-19 11:30:00,
2013-12-19 06:34:00,26.8,22.6,30.31,SW,218,0.0,0.0,84,0.00,,---,0.00,VWS V14.01,2013-12-19 11:34:00,
2013-12-19 06:35:00,26.8,22.6,30.31,SW,218,0.0,0.0,84,0.00,,---,0.00,VWS V14.01,2013-12-19 11:35:00,
2013-12-19 06:39:00,26.9,22.1,30.32,SW,218,0.0,0.0,82,0.00,,---,0.00,VWS V14.01,2013-12-19 11:39:00,
2013-12-19 06:40:00,26.9,22.1,30.32,SW,218,0.0,0.0,82,0.00,,---,0.00,VWS V14.01,2013-12-19 11:40:00,
2013-12-19 06:44:00,27.1,22.1,30.31,SW,218,0.0,0.0,81,0.00,,---,0.00,VWS V14.01,2013-12-19 11:44:00,
2013-12-19 06:45:00,27.1,22.1,30.31,SW,218,0.0,0.0,81,0.00,,---,0.00,VWS V14.01,2013-12-19 11:45:00,
2013-12-19 06:49:00,27.3,22.0,30.32,SW,218,0.0,0.0,80,0.00,,---,0.00,VWS V14.01,2013-12-19 11:49:00,
2013-12-19 06:50:00,27.3,22.0,30.32,SW,218,0.0,0.0,80,0.00,,---,0.00,VWS V14.01,2013-12-19 11:50:00,
2013-12-19 06:54:00,27.4,22.0,30.32,SW,218,0.0,0.0,80,0.00,,---,0.00,VWS V14.01,2013-12-19 11:54:00,
2013-12-19 06:55:00,27.4,22.0,30.32,SW,218,0.0,0.0,80,0.00,,---,0.00,VWS V14.01,2013-12-19 11:55:00,
2013-12-19 07:00:00,27.4,21.8,30.32,SW,218,0.0,0.0,79,0.00,,---,0.00,VWS V14.01,2013-12-19 12:00:00,
2013-12-19 07:05:00,27.6,22.0,30.32,SW,218,0.0,0.0,79,0.00,,---,0.00,VWS V14.01,2013-12-19 12:05:00,
2013-12-19 07:09:00,27.9,22.2,30.32,SW,218,0.0,0.0,79,0.00,,---,0.00,VWS V14.01,2013-12-19 12:09:00,
2013-12-19 07:10:00,27.9,22.2,30.32,SW,218,0.0,0.0,79,0.00,,---,0.00,VWS V14.01,2013-12-19 12:10:00,
2013-12-19 07:14:00,28.2,22.2,30.32,SW,218,0.0,0.0,78,0.00,,---,0.00,VWS V14.01,2013-12-19 12:14:00,
2013-12-19 07:15:00,28.2,22.2,30.32,SW,218,0.0,0.0,78,0.00,,---,0.00,VWS V14.01,2013-12-19 12:15:00,
2013-12-19 07:19:00,28.5,22.5,30.32,SW,218,0.0,0.0,78,0.00,,---,0.00,VWS V14.01,2013-12-19 12:19:00,
2013-12-19 07:20:00,28.5,22.5,30.32,SW,218,0.0,0.0,78,0.00,,---,0.00,VWS V14.01,2013-12-19 12:20:00,
2013-12-19 07:24:00,28.5,22.8,30.32,SW,218,0.0,0.0,79,0.00,,---,0.00,VWS V14.01,2013-12-19 12:24:00,
2013-12-19 07:25:00,28.5,22.8,30.32,SW,218,0.0,0.0,79,0.00,,---,0.00,VWS V14.01,2013-12-19 12:25:00,
2013-12-19 07:29:00,28.5,22.2,30.33,SW,218,0.0,0.0,77,0.00,,---,0.00,VWS V14.01,2013-12-19 12:29:00,
2013-12-19 07:30:00,28.5,22.2,30.33,SW,218,0.0,0.0,77,0.00,,---,0.00,VWS V14.01,2013-12-19 12:30:00,
2013-12-19 07:35:00,28.4,22.7,30.33,SW,218,0.0,0.0,79,0.00,,---,0.00,VWS V14.01,2013-12-19 12:35:00,
2013-12-19 07:39:00,28.2,22.5,30.33,SW,218,0.0,0.0,79,0.00,,---,0.00,VWS V14.01,2013-12-19 12:39:00,
2013-12-19 07:40:00,28.2,22.5,30.33,SW,218,0.0,0.0,79,0.00,,---,0.00,VWS V14.01,2013-12-19 12:40:00,
2013-12-19 07:44:00,28.1,22.4,30.33,SW,218,0.0,0.0,79,0.00,,---,0.00,VWS V14.01,2013-12-19 12:44:00,
2013-12-19 07:45:00,28.1,22.4,30.33,SW,218,0.0,0.0,79,0.00,,---,0.00,VWS V14.01,2013-12-19 12:45:00,
2013-12-19 07:49:00,27.9,22.8,30.33,SW,218,0.0,0.0,81,0.00,,---,0.00,VWS V14.01,2013-12-19 12:49:00,
2013-12-19 07:50:00,27.9,22.8,30.33,SW,218,0.0,0.0,81,0.00,,---,0.00,VWS V14.01,2013-12-19 12:50:00,
2013-12-19 07:55:00,27.8,22.7,30.33,SW,218,0.0,0.0,81,0.00,,---,0.00,VWS V14.01,2013-12-19 12:55:00,
2013-12-19 07:59:00,27.7,22.9,30.33,SW,218,0.0,0.0,82,0.00,,---,0.00,VWS V14.01,2013-12-19 12:59:00,
2013-12-19 08:00:00,27.7,22.9,30.33,SW,218,0.0,0.0,82,0.00,,---,0.00,VWS V14.01,2013-12-19 13:00:00,
2013-12-19 08:05:00,27.7,23.2,30.33,SW,218,0.0,0.0,83,0.00,,---,0.00,VWS V14.01,2013-12-19 13:05:00,
2013-12-19 08:09:00,27.8,23.3,30.33,SW,218,0.0,0.0,83,0.00,,---,0.00,VWS V14.01,2013-12-19 13:09:00,
2013-12-19 08:10:00,27.8,23.3,30.33,SW,218,0.0,0.0,83,0.00,,---,0.00,VWS V14.01,2013-12-19 13:10:00,
2013-12-19 08:14:00,27.9,23.4,30.33,SW,218,0.0,0.0,83,0.00,,---,0.00,VWS V14.01,2013-12-19 13:14:00,
2013-12-19 08:15:00,27.9,23.4,30.33,SW,218,0.0,0.0,83,0.00,,---,0.00,VWS V14.01,2013-12-19 13:15:00,
2013-12-19 08:19:00,27.8,23.3,30.33,SW,218,0.0,0.0,83,0.00,,---,0.00,VWS V14.01,2013-12-19 13:19:00,
2013-12-19 08:20:00,27.8,23.3,30.33,SW,218,0.0,0.0,83,0.00,,---,0.00,VWS V14.01,2013-12-19 13:20:00,
2013-12-19 08:24:00,27.7,23.2,30.33,SW,218,0.0,1.0,83,0.00,,---,0.00,VWS V14.01,2013-12-19 13:24:00,
2013-12-19 08:25:00,27.7,23.2,30.33,SW,218,0.0,1.0,83,0.00,,---,0.00,VWS V14.01,2013-12-19 13:25:00,
2013-12-19 08:29:00,27.7,23.2,30.33,SW,218,0.0,0.0,83,0.00,,---,0.00,VWS V14.01,2013-12-19 13:29:00,
2013-12-19 08:30:00,27.7,23.2,30.33,SW,218,0.0,0.0,83,0.00,,---,0.00,VWS V14.01,2013-12-19 13:30:00,
2013-12-19 08:35:00,27.7,22.9,30.33,SW,218,0.0,0.0,82,0.00,,---,0.00,VWS V14.01,2013-12-19 13:35:00,
2013-12-19 08:39:00,27.9,22.8,30.33,SW,218,0.0,0.0,81,0.00,,---,0.00,VWS V14.01,2013-12-19 13:39:00,
2013-12-19 08:40:00,27.9,22.8,30.33,SW,218,0.0,0.0,81,0.00,,---,0.00,VWS V14.01,2013-12-19 13:40:00,
2013-12-19 08:44:00,28.3,23.5,30.33,SW,218,1.0,1.0,82,0.00,,---,0.00,VWS V14.01,2013-12-19 13:44:00,
2013-12-19 08:45:00,28.3,23.5,30.33,SW,218,1.0,1.0,82,0.00,,---,0.00,VWS V14.01,2013-12-19 13:45:00,
2013-12-19 08:49:00,29.4,24.6,30.33,South,183,0.0,4.0,82,0.00,,---,0.00,VWS V14.01,2013-12-19 13:49:00,
2013-12-19 08:50:00,29.4,24.6,30.33,South,183,0.0,4.0,82,0.00,,---,0.00,VWS V14.01,2013-12-19 13:50:00,
2013-12-19 08:54:00,30.6,25.2,30.33,SSW,207,0.0,4.0,80,0.00,,---,0.00,VWS V14.01,2013-12-19 13:54:00,
2013-12-19 08:55:00,30.6,25.2,30.33,SSW,207,0.0,4.0,80,0.00,,---,0.00,VWS V14.01,2013-12-19 13:55:00,
2013-12-19 09:00:00,31.9,25.8,30.33,SW,217,0.0,6.0,78,0.00,,---,0.00,VWS V14.01,2013-12-19 14:00:00,
2013-12-19 09:04:00,33.1,26.0,30.33,WNW,297,0.0,5.0,75,0.00,,---,0.00,VWS V14.01,2013-12-19 14:04:00,
2013-12-19 09:05:00,33.1,26.0,30.33,WNW,297,0.0,5.0,75,0.00,,---,0.00,VWS V14.01,2013-12-19 14:05:00,
2013-12-19 09:09:00,33.9,26.5,30.34,SW,223,0.0,3.0,74,0.00,,---,0.00,VWS V14.01,2013-12-19 14:09:00,
2013-12-19 09:10:00,33.9,26.5,30.34,SW,223,0.0,3.0,74,0.00,,---,0.00,VWS V14.01,2013-12-19 14:10:00,
2013-12-19 09:14:00,34.8,26.7,30.34,South,185,0.0,4.0,72,0.00,,---,0.00,VWS V14.01,2013-12-19 14:14:00,
2013-12-19 09:15:00,34.8,26.7,30.34,South,185,0.0,4.0,72,0.00,,---,0.00,VWS V14.01,2013-12-19 14:15:00,
2013-12-19 09:19:00,35.6,26.8,30.34,SW,233,0.0,3.0,70,0.00,,---,0.00,VWS V14.01,2013-12-19 14:19:00,
2013-12-19 09:20:00,35.6,26.8,30.34,SW,233,0.0,3.0,70,0.00,,---,0.00,VWS V14.01,2013-12-19 14:20:00,
2013-12-19 09:24:00,36.2,26.7,30.34,WSW,244,3.0,6.0,68,0.00,,---,0.00,VWS V14.01,2013-12-19 14:24:00,
2013-12-19 09:25:00,36.2,26.7,30.34,WSW,244,3.0,6.0,68,0.00,,---,0.00,VWS V14.01,2013-12-19 14:25:00,
2013-12-19 09:29:00,36.8,27.2,30.34,SW,215,2.0,4.0,68,0.00,,---,0.00,VWS V14.01,2013-12-19 14:29:00,
2013-12-19 09:30:00,36.8,27.2,30.34,SW,215,2.0,4.0,68,0.00,,---,0.00,VWS V14.01,2013-12-19 14:30:00,
2013-12-19 09:34:00,37.3,27.0,30.34,SW,215,0.0,2.0,66,0.00,,---,0.00,VWS V14.01,2013-12-19 14:34:00,
2013-12-19 09:35:00,37.3,27.0,30.34,SW,215,0.0,2.0,66,0.00,,---,0.00,VWS V14.01,2013-12-19 14:35:00,
2013-12-19 09:39:00,37.8,27.5,30.34,SW,215,0.0,3.0,66,0.00,,---,0.00,VWS V14.01,2013-12-19 14:39:00,
2013-12-19 09:40:00,37.8,27.5,30.34,SW,215,0.0,3.0,66,0.00,,---,0.00,VWS V14.01,2013-12-19 14:40:00,
2013-12-19 09:45:00,38.3,27.6,30.34,West,269,0.0,6.0,65,0.00,,---,0.00,VWS V14.01,2013-12-19 14:45:00,
2013-12-19 09:49:00,39.2,27.7,30.34,SSW,205,0.0,9.0,63,0.00,,---,0.00,VWS V14.01,2013-12-19 14:49:00,
2013-12-19 09:50:00,39.2,27.7,30.34,SSW,205,0.0,9.0,63,0.00,,---,0.00,VWS V14.01,2013-12-19 14:50:00,
2013-12-19 09:54:00,39.7,27.4,30.34,SW,222,1.0,5.0,61,0.00,,---,0.00,VWS V14.01,2013-12-19 14:54:00,
2013-12-19 09:55:00,39.7,27.4,30.34,SW,222,1.0,5.0,61,0.00,,---,0.00,VWS V14.01,2013-12-19 14:55:00,
2013-12-19 09:59:00,40.2,27.4,30.34,SW,222,0.0,2.0,60,0.00,,---,0.00,VWS V14.01,2013-12-19 14:59:00,
2013-12-19 10:00:00,40.2,27.4,30.34,SW,222,0.0,2.0,60,0.00,,---,0.00,VWS V14.01,2013-12-19 15:00:00,
2013-12-19 10:05:00,40.7,26.7,30.35,WSW,248,6.0,6.0,57,0.00,,---,0.00,VWS V14.01,2013-12-19 15:05:00,
2013-12-19 10:09:00,41.5,27.0,30.34,South,184,2.0,8.0,56,0.00,,---,0.00,VWS V14.01,2013-12-19 15:09:00,
2013-12-19 10:10:00,41.5,27.0,30.34,South,184,2.0,8.0,56,0.00,,---,0.00,VWS V14.01,2013-12-19 15:10:00,
2013-12-19 10:14:00,42.1,26.7,30.35,West,266,5.0,6.0,54,0.00,,---,0.00,VWS V14.01,2013-12-19 15:14:00,
2013-12-19 10:15:00,42.1,26.7,30.35,West,266,5.0,6.0,54,0.00,,---,0.00,VWS V14.01,2013-12-19 15:15:00,
2013-12-19 10:19:00,42.5,26.6,30.34,WSW,238,3.0,5.0,53,0.00,,---,0.00,VWS V14.01,2013-12-19 15:19:00,
2013-12-19 10:20:00,42.5,26.6,30.34,WSW,238,3.0,5.0,53,0.00,,---,0.00,VWS V14.01,2013-12-19 15:20:00,
2013-12-19 10:24:00,42.8,26.9,30.34,SW,216,3.0,6.0,53,0.00,,---,0.00,VWS V14.01,2013-12-19 15:24:00,
2013-12-19 10:25:00,42.8,26.9,30.34,SW,216,3.0,6.0,53,0.00,,---,0.00,VWS V14.01,2013-12-19 15:25:00,
2013-12-19 10:29:00,43.3,26.9,30.34,SW,228,1.0,6.0,52,0.00,,---,0.00,VWS V14.01,2013-12-19 15:29:00,
2013-12-19 10:30:00,43.3,26.9,30.34,SW,228,1.0,6.0,52,0.00,,---,0.00,VWS V14.01,2013-12-19 15:30:00,
2013-12-19 10:34:00,43.8,26.9,30.35,South,188,4.0,4.0,51,0.00,,---,0.00,VWS V14.01,2013-12-19 15:34:00,
2013-12-19 10:35:00,43.8,26.9,30.35,South,188,4.0,4.0,51,0.00,,---,0.00,VWS V14.01,2013-12-19 15:35:00,
2013-12-19 10:39:00,44.4,26.5,30.34,NW,306,4.0,9.0,49,0.00,,---,0.00,VWS V14.01,2013-12-19 15:39:00,
2013-12-19 10:40:00,44.4,26.5,30.34,NW,306,4.0,9.0,49,0.00,,---,0.00,VWS V14.01,2013-12-19 15:40:00,
2013-12-19 10:45:00,45.1,27.1,30.34,West,265,2.0,5.0,49,0.00,,---,0.00,VWS V14.01,2013-12-19 15:45:00,
2013-12-19 10:49:00,45.8,26.7,30.34,WSW,244,0.0,6.0,47,0.00,,---,0.00,VWS V14.01,2013-12-19 15:49:00,
2013-12-19 10:50:00,45.8,26.7,30.34,WSW,244,0.0,6.0,47,0.00,,---,0.00,VWS V14.01,2013-12-19 15:50:00,
2013-12-19 10:54:00,46.3,27.2,30.34,West,265,0.0,3.0,47,0.00,,---,0.00,VWS V14.01,2013-12-19 15:54:00,
2013-12-19 10:55:00,46.3,27.2,30.34,West,265,0.0,3.0,47,0.00,,---,0.00,VWS V14.01,2013-12-19 15:55:00,
2013-12-19 10:59:00,46.7,27.0,30.34,West,271,3.0,4.0,46,0.00,,---,0.00,VWS V14.01,2013-12-19 15:59:00,
2013-12-19 11:00:00,46.7,27.0,30.34,West,271,3.0,4.0,46,0.00,,---,0.00,VWS V14.01,2013-12-19 16:00:00,
2013-12-19 11:05:00,47.5,25.6,30.33,SW,235,0.0,7.0,42,0.00,,---,0.00,VWS V14.01,2013-12-19 16:05:00,
2013-12-19 11:09:00,48.2,25.6,30.33,South,187,3.0,11.0,41,0.00,,---,0.00,VWS V14.01,2013-12-19 16:09:00,
2013-12-19 11:10:00,48.2,25.6,30.33,South,187,3.0,11.0,41,0.00,,---,0.00,VWS V14.01,2013-12-19 16:10:00,
2013-12-19 11:14:00,48.6,23.5,30.33,WSW,248,0.0,11.0,37,0.00,,---,0.00,VWS V14.01,2013-12-19 16:14:00,
2013-12-19 11:15:00,48.6,23.5,30.33,WSW,248,0.0,11.0,37,0.00,,---,0.00,VWS V14.01,2013-12-19 16:15:00,
2013-12-19 11:20:00,49.0,23.9,30.33,South,178,6.0,7.0,37,0.00,,---,0.00,VWS V14.01,2013-12-19 16:20:00,
2013-12-19 11:24:00,49.4,23.6,30.33,South,183,1.0,14.0,36,0.00,,---,0.00,VWS V14.01,2013-12-19 16:24:00,
2013-12-19 11:25:00,49.4,23.6,30.33,South,183,1.0,14.0,36,0.00,,---,0.00,VWS V14.01,2013-12-19 16:25:00,
2013-12-19 11:30:00,49.7,23.9,30.32,West,261,1.0,9.0,36,0.00,,---,0.00,VWS V14.01,2013-12-19 16:30:00,
2013-12-19 11:34:00,50.0,24.1,30.32,West,274,3.0,5.0,36,0.00,,---,0.00,VWS V14.01,2013-12-19 16:34:00,
2013-12-19 11:35:00,50.0,24.1,30.32,West,274,3.0,5.0,36,0.00,,---,0.00,VWS V14.01,2013-12-19 16:35:00,
2013-12-19 11:39:00,50.4,25.1,30.32,West,280,2.0,7.0,37,0.00,,---,0.00,VWS V14.01,2013-12-19 16:39:00,
2013-12-19 11:40:00,50.4,25.1,30.32,West,280,2.0,7.0,37,0.00,,---,0.00,VWS V14.01,2013-12-19 16:40:00,
2013-12-19 11:44:00,50.7,24.7,30.31,West,279,0.0,10.0,36,0.00,,---,0.00,VWS V14.01,2013-12-19 16:44:00,
2013-12-19 11:45:00,50.7,24.7,30.31,West,279,0.0,10.0,36,0.00,,---,0.00,VWS V14.01,2013-12-19 16:45:00,
2013-12-19 11:49:00,51.0,24.3,30.31,South,184,4.0,11.0,35,0.00,,---,0.00,VWS V14.01,2013-12-19 16:49:00,
2013-12-19 11:50:00,51.0,24.3,30.31,South,184,4.0,11.0,35,0.00,,---,0.00,VWS V14.01,2013-12-19 16:50:00,
2013-12-19 11:54:00,51.2,25.2,30.31,South,175,2.0,7.0,36,0.00,,---,0.00,VWS V14.01,2013-12-19 16:54:00,
2013-12-19 11:55:00,51.2,25.2,30.31,South,175,2.0,7.0,36,0.00,,---,0.00,VWS V14.01,2013-12-19 16:55:00,
2013-12-19 11:59:00,51.7,24.3,30.30,South,186,0.0,10.0,34,0.00,,---,0.00,VWS V14.01,2013-12-19 16:59:00,
2013-12-19 12:00:00,51.7,24.3,30.30,South,186,0.0,10.0,34,0.00,,---,0.00,VWS V14.01,2013-12-19 17:00:00,
2013-12-19 12:04:00,52.0,24.5,30.30,WNW,286,4.0,9.0,34,0.00,,---,0.00,VWS V14.01,2013-12-19 17:04:00,
2013-12-19 12:05:00,52.0,24.5,30.30,WNW,286,4.0,9.0,34,0.00,,---,0.00,VWS V14.01,2013-12-19 17:05:00,
2013-12-19 12:09:00,52.3,25.5,30.30,WSW,256,2.0,6.0,35,0.00,,---,0.00,VWS V14.01,2013-12-19 17:09:00,
2013-12-19 12:10:00,52.3,25.5,30.30,WSW,256,2.0,6.0,35,0.00,,---,0.00,VWS V14.01,2013-12-19 17:10:00,
2013-12-19 12:14:00,52.5,25.7,30.29,WNW,288,1.0,5.0,35,0.00,,---,0.00,VWS V14.01,2013-12-19 17:14:00,
2013-12-19 12:15:00,52.5,25.7,30.29,WNW,288,1.0,5.0,35,0.00,,---,0.00,VWS V14.01,2013-12-19 17:15:00,
2013-12-19 12:19:00,53.0,26.1,30.29,WNW,297,2.0,4.0,35,0.00,,---,0.00,VWS V14.01,2013-12-19 17:19:00,
2013-12-19 12:20:00,53.0,26.1,30.29,WNW,297,2.0,4.0,35,0.00,,---,0.00,VWS V14.01,2013-12-19 17:20:00,
2013-12-19 12:24:00,53.5,25.8,30.29,WSW,240,2.0,7.0,34,0.00,,---,0.00,VWS V14.01,2013-12-19 17:24:00,
2013-12-19 12:25:00,53.5,25.8,30.29,WSW,240,2.0,7.0,34,0.00,,---,0.00,VWS V14.01,2013-12-19 17:25:00,
2013-12-19 12:29:00,53.9,26.2,30.28,West,268,2.0,7.0,34,0.00,,---,0.00,VWS V14.01,2013-12-19 17:29:00,
2013-12-19 12:30:00,53.9,26.2,30.28,West,268,2.0,7.0,34,0.00,,---,0.00,VWS V14.01,2013-12-19 17:30:00,
2013-12-19 12:35:00,54.4,26.6,30.28,West,275,2.0,6.0,34,0.00,,---,0.00,VWS V14.01,2013-12-19 17:35:00,
2013-12-19 12:39:00,54.8,26.3,30.28,SSW,211,0.0,8.0,33,0.00,,---,0.00,VWS V14.01,2013-12-19 17:39:00,
2013-12-19 12:40:00,54.8,26.3,30.28,SSW,211,0.0,8.0,33,0.00,,---,0.00,VWS V14.01,2013-12-19 17:40:00,
2013-12-19 12:44:00,55.1,26.5,30.28,SSW,205,2.0,7.0,33,0.00,,---,0.00,VWS V14.01,2013-12-19 17:44:00,
2013-12-19 12:45:00,55.1,26.5,30.28,SSW,205,2.0,7.0,33,0.00,,---,0.00,VWS V14.01,2013-12-19 17:45:00,
2013-12-19 12:50:00,55.5,26.9,30.27,South,180,5.0,6.0,33,0.00,,---,0.00,VWS V14.01,2013-12-19 17:50:00,
2013-12-19 12:54:00,56.0,27.3,30.27,WSW,237,2.0,7.0,33,0.00,,---,0.00,VWS V14.01,2013-12-19 17:54:00,
2013-12-19 12:55:00,56.0,27.3,30.27,WSW,237,2.0,7.0,33,0.00,,---,0.00,VWS V14.01,2013-12-19 17:55:00,
2013-12-19 13:00:00,56.3,26.8,30.27,WNW,294,1.0,10.0,32,0.00,,---,0.00,VWS V14.01,2013-12-19 18:00:00,
2013-12-19 13:04:00,56.7,26.4,30.27,WSW,254,7.0,7.0,31,0.00,,---,0.00,VWS V14.01,2013-12-19 18:04:00,
2013-12-19 13:05:00,56.7,26.4,30.27,WSW,254,7.0,7.0,31,0.00,,---,0.00,VWS V14.01,2013-12-19 18:05:00,
2013-12-19 13:09:00,56.9,26.6,30.27,WSW,244,1.0,7.0,31,0.00,,---,0.00,VWS V14.01,2013-12-19 18:09:00,
2013-12-19 13:10:00,56.9,26.6,30.27,WSW,244,1.0,7.0,31,0.00,,---,0.00,VWS V14.01,2013-12-19 18:10:00,
2013-12-19 13:14:00,57.2,26.9,30.26,NW,323,3.0,8.0,31,0.00,,---,0.00,VWS V14.01,2013-12-19 18:14:00,
2013-12-19 13:15:00,57.2,26.9,30.26,NW,323,3.0,8.0,31,0.00,,---,0.00,VWS V14.01,2013-12-19 18:15:00,
2013-12-19 13:19:00,57.6,27.2,30.26,SSW,204,2.0,7.0,31,0.00,,---,0.00,VWS V14.01,2013-12-19 18:19:00,
2013-12-19 13:20:00,57.6,27.2,30.26,SSW,204,2.0,7.0,31,0.00,,---,0.00,VWS V14.01,2013-12-19 18:20:00,
2013-12-19 13:24:00,58.1,28.4,30.26,West,271,4.0,7.0,32,0.00,,---,0.00,VWS V14.01,2013-12-19 18:24:00,
2013-12-19 13:25:00,58.1,28.4,30.26,West,271,4.0,7.0,32,0.00,,---,0.00,VWS V14.01,2013-12-19 18:25:00,
2013-12-19 13:29:00,58.3,28.6,30.26,SW,219,5.0,9.0,32,0.00,,---,0.00,VWS V14.01,2013-12-19 18:29:00,
2013-12-19 13:30:00,58.3,28.6,30.26,SW,219,5.0,9.0,32,0.00,,---,0.00,VWS V14.01,2013-12-19 18:30:00,
2013-12-19 13:35:00,58.6,28.9,30.26,SW,229,3.0,6.0,32,0.00,,---,0.00,VWS V14.01,2013-12-19 18:35:00,
2013-12-19 13:39:00,58.9,29.1,30.26,SSW,207,3.0,7.0,32,0.00,,---,0.00,VWS V14.01,2013-12-19 18:39:00,
2013-12-19 13:40:00,58.9,29.1,30.26,SSW,207,3.0,7.0,32,0.00,,---,0.00,VWS V14.01,2013-12-19 18:40:00,
2013-12-19 13:45:00,58.9,29.1,30.25,WNW,292,1.0,6.0,32,0.00,,---,0.00,VWS V14.01,2013-12-19 18:45:00,
2013-12-19 13:49:00,59.3,28.7,30.25,SSW,209,1.0,8.0,31,0.00,,---,0.00,VWS V14.01,2013-12-19 18:49:00,
2013-12-19 13:50:00,59.3,28.7,30.25,SSW,209,1.0,8.0,31,0.00,,---,0.00,VWS V14.01,2013-12-19 18:50:00,
2013-12-19 13:54:00,59.6,28.1,30.25,WSW,251,3.0,11.0,30,0.00,,---,0.00,VWS V14.01,2013-12-19 18:54:00,
2013-12-19 13:55:00,59.6,28.1,30.25,WSW,251,3.0,11.0,30,0.00,,---,0.00,VWS V14.01,2013-12-19 18:55:00,
2013-12-19 13:59:00,59.7,29.0,30.24,WNW,285,1.0,9.0,31,0.00,,---,0.00,VWS V14.01,2013-12-19 18:59:00,
2013-12-19 14:00:00,59.7,29.0,30.24,WNW,285,1.0,9.0,31,0.00,,---,0.00,VWS V14.01,2013-12-19 19:00:00,
2013-12-19 14:04:00,60.0,27.7,30.25,South,182,9.0,9.0,29,0.00,,---,0.00,VWS V14.01,2013-12-19 19:04:00,
2013-12-19 14:05:00,60.0,27.7,30.25,South,182,9.0,9.0,29,0.00,,---,0.00,VWS V14.01,2013-12-19 19:05:00,
2013-12-19 14:10:00,60.3,28.8,30.24,WSW,253,2.0,9.0,30,0.00,,---,0.00,VWS V14.01,2013-12-19 19:10:00,
2013-12-19 14:14:00,60.3,27.1,30.24,SSE,155,0.0,7.0,28,0.00,,---,0.00,VWS V14.01,2013-12-19 19:14:00,
2013-12-19 14:15:00,60.3,27.1,30.24,SSE,155,0.0,7.0,28,0.00,,---,0.00,VWS V14.01,2013-12-19 19:15:00,
2013-12-19 14:20:00,60.7,28.3,30.24,West,271,1.0,5.0,29,0.00,,---,0.00,VWS V14.01,2013-12-19 19:20:00,
2013-12-19 14:24:00,61.1,27.8,30.24,West,261,2.0,4.0,28,0.00,,---,0.00,VWS V14.01,2013-12-19 19:24:00,
2013-12-19 14:25:00,61.1,27.8,30.24,West,261,2.0,4.0,28,0.00,,---,0.00,VWS V14.01,2013-12-19 19:25:00,
2013-12-19 14:29:00,61.4,28.0,30.23,SSW,210,2.0,7.0,28,0.00,,---,0.00,VWS V14.01,2013-12-19 19:29:00,
2013-12-19 14:30:00,61.4,28.0,30.23,SSW,210,2.0,7.0,28,0.00,,---,0.00,VWS V14.01,2013-12-19 19:30:00,
2013-12-19 14:34:00,61.8,28.4,30.23,SW,218,1.0,4.0,28,0.00,,---,0.00,VWS V14.01,2013-12-19 19:34:00,
2013-12-19 14:35:00,61.8,28.4,30.23,SW,218,1.0,4.0,28,0.00,,---,0.00,VWS V14.01,2013-12-19 19:35:00,
2013-12-19 14:39:00,62.1,28.6,30.23,WSW,250,0.0,5.0,28,0.00,,---,0.00,VWS V14.01,2013-12-19 19:39:00,
2013-12-19 14:40:00,62.1,28.6,30.23,WSW,250,0.0,5.0,28,0.00,,---,0.00,VWS V14.01,2013-12-19 19:40:00,
2013-12-19 14:44:00,62.3,27.9,30.23,SSE,152,4.0,7.0,27,0.00,,---,0.00,VWS V14.01,2013-12-19 19:44:00,
2013-12-19 14:45:00,62.3,27.9,30.23,SSE,152,4.0,7.0,27,0.00,,---,0.00,VWS V14.01,2013-12-19 19:45:00,
2013-12-19 14:49:00,62.4,28.9,30.23,WSW,240,1.0,10.0,28,0.00,,---,0.00,VWS V14.01,2013-12-19 19:49:00,
2013-12-19 14:50:00,62.4,28.9,30.23,WSW,240,1.0,10.0,28,0.00,,---,0.00,VWS V14.01,2013-12-19 19:50:00,
2013-12-19 14:54:00,62.7,28.3,30.23,SSW,200,0.0,7.0,27,0.00,,---,0.00,VWS V14.01,2013-12-19 19:54:00,
2013-12-19 14:55:00,62.7,28.3,30.23,SSW,200,0.0,7.0,27,0.00,,---,0.00,VWS V14.01,2013-12-19 19:55:00,
2013-12-19 14:59:00,63.0,29.4,30.23,SSW,200,2.0,2.0,28,0.00,,---,0.00,VWS V14.01,2013-12-19 19:59:00,
2013-12-19 15:00:00,63.0,29.4,30.23,SSW,200,2.0,2.0,28,0.00,,---,0.00,VWS V14.01,2013-12-19 20:00:00,
2013-12-19 15:05:00,63.1,27.7,30.23,South,171,0.0,11.0,26,0.00,,---,0.00,VWS V14.01,2013-12-19 20:05:00,
2013-12-19 15:09:00,62.7,26.4,30.23,South,181,0.0,11.0,25,0.00,,---,0.00,VWS V14.01,2013-12-19 20:09:00,
2013-12-19 15:10:00,62.7,26.4,30.23,South,181,0.0,11.0,25,0.00,,---,0.00,VWS V14.01,2013-12-19 20:10:00,
2013-12-19 15:14:00,62.2,26.9,30.23,WSW,247,1.0,8.0,26,0.00,,---,0.00,VWS V14.01,2013-12-19 20:14:00,
2013-12-19 15:15:00,62.2,26.9,30.23,WSW,247,1.0,8.0,26,0.00,,---,0.00,VWS V14.01,2013-12-19 20:15:00,
2013-12-19 15:19:00,61.6,26.4,30.23,West,263,1.0,8.0,26,0.00,,---,0.00,VWS V14.01,2013-12-19 20:19:00,
2013-12-19 15:20:00,61.6,26.4,30.23,West,263,1.0,8.0,26,0.00,,---,0.00,VWS V14.01,2013-12-19 20:20:00,
2013-12-19 15:24:00,61.2,26.1,30.23,SW,229,2.0,5.0,26,0.00,,---,0.00,VWS V14.01,2013-12-19 20:24:00,
2013-12-19 15:25:00,61.2,26.1,30.23,SW,229,2.0,5.0,26,0.00,,---,0.00,VWS V14.01,2013-12-19 20:25:00,
2013-12-19 15:29:00,61.1,26.9,30.23,SSW,207,1.0,4.0,27,0.00,,---,0.00,VWS V14.01,2013-12-19 20:29:00,
2013-12-19 15:30:00,61.1,26.9,30.23,SSW,207,1.0,4.0,27,0.00,,---,0.00,VWS V14.01,2013-12-19 20:30:00,
2013-12-19 15:35:00,61.0,25.9,30.23,SW,225,3.0,8.0,26,0.00,,---,0.00,VWS V14.01,2013-12-19 20:35:00,
2013-12-19 15:39:00,60.9,25.8,30.23,WSW,238,3.0,5.0,26,0.00,,---,0.00,VWS V14.01,2013-12-19 20:39:00,
2013-12-19 15:40:00,60.9,25.8,30.23,WSW,238,3.0,5.0,26,0.00,,---,0.00,VWS V14.01,2013-12-19 20:40:00,
2013-12-19 15:44:00,60.8,26.6,30.23,South,186,0.0,6.0,27,0.00,,---,0.00,VWS V14.01,2013-12-19 20:44:00,
2013-12-19 15:45:00,60.8,26.6,30.23,South,186,0.0,6.0,27,0.00,,---,0.00,VWS V14.01,2013-12-19 20:45:00,
2013-12-19 15:50:00,60.6,26.5,30.23,West,261,5.0,5.0,27,0.00,,---,0.00,VWS V14.01,2013-12-19 20:50:00,
2013-12-19 15:54:00,60.5,27.3,30.24,South,184,0.0,6.0,28,0.00,,---,0.00,VWS V14.01,2013-12-19 20:54:00,
2013-12-19 15:55:00,60.5,27.3,30.24,South,184,0.0,6.0,28,0.00,,---,0.00,VWS V14.01,2013-12-19 20:55:00,
2013-12-19 15:59:00,60.3,25.3,30.23,West,270,5.0,5.0,26,0.00,,---,0.00,VWS V14.01,2013-12-19 20:59:00,
2013-12-19 16:00:00,60.3,25.3,30.23,West,270,5.0,5.0,26,0.00,,---,0.00,VWS V14.01,2013-12-19 21:00:00,
2013-12-19 16:04:00,60.2,26.1,30.23,SW,221,1.0,6.0,27,0.00,,---,0.00,VWS V14.01,2013-12-19 21:04:00,
2013-12-19 16:05:00,60.2,26.1,30.23,SW,221,1.0,6.0,27,0.00,,---,0.00,VWS V14.01,2013-12-19 21:05:00,
2013-12-19 16:10:00,60.0,26.0,30.23,SSE,154,4.0,8.0,27,0.00,,---,0.00,VWS V14.01,2013-12-19 21:10:00,
2013-12-19 16:14:00,59.8,25.8,30.23,SSW,213,1.0,9.0,27,0.00,,---,0.00,VWS V14.01,2013-12-19 21:14:00,
2013-12-19 16:15:00,59.8,25.8,30.23,SSW,213,1.0,9.0,27,0.00,,---,0.00,VWS V14.01,2013-12-19 21:15:00,
2013-12-19 16:19:00,59.7,26.6,30.24,SSW,202,1.0,3.0,28,0.00,,---,0.00,VWS V14.01,2013-12-19 21:19:00,
2013-12-19 16:20:00,59.7,26.6,30.24,SSW,202,1.0,3.0,28,0.00,,---,0.00,VWS V14.01,2013-12-19 21:20:00,
2013-12-19 16:24:00,59.6,26.5,30.24,SSW,202,0.0,1.0,28,0.00,,---,0.00,VWS V14.01,2013-12-19 21:24:00,
2013-12-19 16:25:00,59.6,26.5,30.24,SSW,202,0.0,1.0,28,0.00,,---,0.00,VWS V14.01,2013-12-19 21:25:00,
2013-12-19 16:29:00,59.4,27.2,30.24,SSW,202,0.0,1.0,29,0.00,,---,0.00,VWS V14.01,2013-12-19 21:29:00,
2013-12-19 16:30:00,59.4,27.2,30.24,SSW,202,0.0,1.0,29,0.00,,---,0.00,VWS V14.01,2013-12-19 21:30:00,
2013-12-19 16:34:00,59.2,27.0,30.24,SSW,202,0.0,1.0,29,0.00,,---,0.00,VWS V14.01,2013-12-19 21:34:00,
2013-12-19 16:35:00,59.2,27.0,30.24,SSW,202,0.0,1.0,29,0.00,,---,0.00,VWS V14.01,2013-12-19 21:35:00,
2013-12-19 16:39:00,59.0,26.0,30.24,SSW,202,0.0,1.0,28,0.00,,---,0.00,VWS V14.01,2013-12-19 21:39:00,
2013-12-19 16:40:00,59.0,26.0,30.24,SSW,202,0.0,1.0,28,0.00,,---,0.00,VWS V14.01,2013-12-19 21:40:00,
2013-12-19 16:44:00,58.8,25.8,30.24,SSW,202,0.0,2.0,28,0.00,,---,0.00,VWS V14.01,2013-12-19 21:44:00,
2013-12-19 16:45:00,58.8,25.8,30.24,SSW,202,0.0,2.0,28,0.00,,---,0.00,VWS V14.01,2013-12-19 21:45:00,
2013-12-19 16:49:00,58.5,25.5,30.24,SSW,202,0.0,0.0,28,0.00,,---,0.00,VWS V14.01,2013-12-19 21:49:00,
2013-12-19 16:50:00,58.5,25.5,30.24,SSW,202,0.0,0.0,28,0.00,,---,0.00,VWS V14.01,2013-12-19 21:50:00,
2013-12-19 16:54:00,58.2,25.3,30.24,SSW,203,0.0,1.0,28,0.00,,---,0.00,VWS V14.01,2013-12-19 21:54:00,
2013-12-19 16:55:00,58.2,25.3,30.24,SSW,203,0.0,1.0,28,0.00,,---,0.00,VWS V14.01,2013-12-19 21:55:00,
2013-12-19 17:00:00,58.0,25.9,30.24,South,191,0.0,2.0,29,0.00,,---,0.00,VWS V14.01,2013-12-19 22:00:00,
2013-12-19 17:04:00,57.7,25.7,30.24,South,191,0.0,0.0,29,0.00,,---,0.00,VWS V14.01,2013-12-19 22:04:00,
2013-12-19 17:05:00,57.7,25.7,30.24,South,191,0.0,0.0,29,0.00,,---,0.00,VWS V14.01,2013-12-19 22:05:00,
2013-12-19 17:09:00,57.3,25.3,30.24,South,191,0.0,0.0,29,0.00,,---,0.00,VWS V14.01,2013-12-19 22:09:00,
2013-12-19 17:10:00,57.3,25.3,30.24,South,191,0.0,0.0,29,0.00,,---,0.00,VWS V14.01,2013-12-19 22:10:00,
2013-12-19 17:15:00,57.0,25.1,30.25,South,191,0.0,0.0,29,0.00,,---,0.00,VWS V14.01,2013-12-19 22:15:00,
2013-12-19 17:19:00,56.8,24.9,30.25,South,191,0.0,0.0,29,0.00,,---,0.00,VWS V14.01,2013-12-19 22:19:00,
2013-12-19 17:20:00,56.8,24.9,30.25,South,191,0.0,0.0,29,0.00,,---,0.00,VWS V14.01,2013-12-19 22:20:00,
2013-12-19 17:24:00,56.5,25.5,30.25,South,191,0.0,0.0,30,0.00,,---,0.00,VWS V14.01,2013-12-19 22:24:00,
2013-12-19 17:25:00,56.5,25.5,30.25,South,191,0.0,0.0,30,0.00,,---,0.00,VWS V14.01,2013-12-19 22:25:00,
2013-12-19 17:29:00,56.3,25.3,30.25,South,191,0.0,0.0,30,0.00,,---,0.00,VWS V14.01,2013-12-19 22:29:00,
2013-12-19 17:30:00,56.3,25.3,30.25,South,191,0.0,0.0,30,0.00,,---,0.00,VWS V14.01,2013-12-19 22:30:00,
2013-12-19 17:34:00,56.0,25.8,30.25,South,191,0.0,1.0,31,0.00,,---,0.00,VWS V14.01,2013-12-19 22:34:00,
2013-12-19 17:35:00,56.0,25.8,30.25,South,191,0.0,1.0,31,0.00,,---,0.00,VWS V14.01,2013-12-19 22:35:00,
2013-12-19 17:39:00,55.6,26.2,30.25,South,191,0.0,0.0,32,0.00,,---,0.00,VWS V14.01,2013-12-19 22:39:00,
2013-12-19 17:40:00,55.6,26.2,30.25,South,191,0.0,0.0,32,0.00,,---,0.00,VWS V14.01,2013-12-19 22:40:00,
2013-12-19 17:44:00,55.0,26.5,30.25,South,191,0.0,1.0,33,0.00,,---,0.00,VWS V14.01,2013-12-19 22:44:00,
2013-12-19 17:45:00,55.0,26.4,30.25,South,191,0.0,1.0,33,0.00,,---,0.00,VWS V14.01,2013-12-19 22:45:00,
2013-12-19 17:50:00,54.4,28.0,30.25,South,191,0.0,0.0,36,0.00,,---,0.00,VWS V14.01,2013-12-19 22:50:00,
2013-12-19 17:54:00,53.8,28.2,30.25,South,191,0.0,0.0,37,0.00,,---,0.00,VWS V14.01,2013-12-19 22:54:00,
2013-12-19 17:55:00,53.8,28.2,30.25,South,191,0.0,0.0,37,0.00,,---,0.00,VWS V14.01,2013-12-19 22:55:00,
2013-12-19 17:59:00,53.2,27.0,30.25,South,191,0.0,1.0,36,0.00,,---,0.00,VWS V14.01,2013-12-19 22:59:00,
2013-12-19 18:00:00,53.2,27.0,30.25,South,191,0.0,1.0,36,0.00,,---,0.00,VWS V14.01,2013-12-19 23:00:00,
2013-12-19 18:04:00,52.9,27.4,30.25,South,191,0.0,0.0,37,0.00,,---,0.00,VWS V14.01,2013-12-19 23:04:00,
2013-12-19 18:05:00,52.9,27.4,30.25,South,191,0.0,0.0,37,0.00,,---,0.00,VWS V14.01,2013-12-19 23:05:00,
2013-12-19 18:09:00,52.6,26.4,30.25,South,191,0.0,1.0,36,0.00,,---,0.00,VWS V14.01,2013-12-19 23:09:00,
2013-12-19 18:10:00,52.6,26.4,30.25,South,191,0.0,1.0,36,0.00,,---,0.00,VWS V14.01,2013-12-19 23:10:00,
2013-12-19 18:14:00,52.5,26.3,30.25,South,191,0.0,1.0,36,0.00,,---,0.00,VWS V14.01,2013-12-19 23:14:00,
2013-12-19 18:15:00,52.5,26.3,30.25,South,191,0.0,1.0,36,0.00,,---,0.00,VWS V14.01,2013-12-19 23:15:00,
2013-12-19 18:19:00,52.4,26.2,30.25,South,191,0.0,1.0,36,0.00,,---,0.00,VWS V14.01,2013-12-19 23:19:00,
2013-12-19 18:20:00,52.4,26.2,30.25,South,191,0.0,1.0,36,0.00,,---,0.00,VWS V14.01,2013-12-19 23:20:00,
2013-12-19 18:25:00,52.4,26.9,30.25,South,191,0.0,1.0,37,0.00,,---,0.00,VWS V14.01,2013-12-19 23:25:00,
2013-12-19 18:29:00,52.3,26.8,30.25,South,191,0.0,0.0,37,0.00,,---,0.00,VWS V14.01,2013-12-19 23:29:00,
2013-12-19 18:30:00,52.3,26.8,30.25,South,191,0.0,0.0,37,0.00,,---,0.00,VWS V14.01,2013-12-19 23:30:00,
2013-12-19 18:34:00,52.1,26.6,30.25,South,191,0.0,0.0,37,0.00,,---,0.00,VWS V14.01,2013-12-19 23:34:00,
2013-12-19 18:35:00,52.1,26.6,30.25,South,191,0.0,0.0,37,0.00,,---,0.00,VWS V14.01,2013-12-19 23:35:00,
2013-12-19 18:39:00,51.7,29.4,30.26,South,191,0.0,0.0,42,0.00,,---,0.00,VWS V14.01,2013-12-19 23:39:00,
2013-12-19 18:40:00,51.7,29.4,30.26,South,191,0.0,0.0,42,0.00,,---,0.00,VWS V14.01,2013-12-19 23:40:00,
2013-12-19 18:44:00,51.3,29.6,30.25,South,191,0.0,0.0,43,0.00,,---,0.00,VWS V14.01,2013-12-19 23:44:00,
2013-12-19 18:45:00,51.3,29.6,30.25,South,191,0.0,0.0,43,0.00,,---,0.00,VWS V14.01,2013-12-19 23:45:00,
2013-12-19 18:49:00,50.8,29.1,30.25,South,191,0.0,0.0,43,0.00,,---,0.00,VWS V14.01,2013-12-19 23:49:00,
2013-12-19 18:50:00,50.8,29.1,30.25,South,191,0.0,0.0,43,0.00,,---,0.00,VWS V14.01,2013-12-19 23:50:00,
2013-12-19 18:54:00,50.2,29.1,30.25,South,191,0.0,1.0,44,0.00,,---,0.00,VWS V14.01,2013-12-19 23:54:00,
2013-12-19 18:55:00,50.2,29.1,30.25,South,191,0.0,1.0,44,0.00,,---,0.00,VWS V14.01,2013-12-19 23:55:00,
2013-12-19 18:59:00,49.8,30.9,30.26,South,191,0.0,0.0,48,0.00,,---,0.00,VWS V14.01,2013-12-19 23:59:00,
2013-12-19 19:00:00,49.8,30.9,30.26,South,191,0.0,0.0,48,0.00,,---,0.00,VWS V14.01,2013-12-20 00:00:00,
2013-12-19 19:04:00,49.2,29.9,30.26,South,191,0.0,0.0,47,0.00,,---,0.00,VWS V14.01,2013-12-20 00:04:00,
2013-12-19 19:05:00,49.2,29.9,30.26,South,191,0.0,0.0,47,0.00,,---,0.00,VWS V14.01,2013-12-20 00:05:00,
2013-12-19 19:09:00,48.8,29.5,30.26,South,191,0.0,0.0,47,0.00,,---,0.00,VWS V14.01,2013-12-20 00:09:00,
2013-12-19 19:10:00,48.8,29.5,30.26,South,191,0.0,0.0,47,0.00,,---,0.00,VWS V14.01,2013-12-20 00:10:00,
2013-12-19 19:14:00,48.5,28.7,30.26,South,191,0.0,0.0,46,0.00,,---,0.00,VWS V14.01,2013-12-20 00:14:00,
2013-12-19 19:15:00,48.5,28.7,30.26,South,191,0.0,0.0,46,0.00,,---,0.00,VWS V14.01,2013-12-20 00:15:00,
2013-12-19 19:20:00,48.3,27.4,30.25,South,191,0.0,0.0,44,0.00,,---,0.00,VWS V14.01,2013-12-20 00:20:00,
2013-12-19 19:24:00,48.0,30.3,30.26,South,191,0.0,0.0,50,0.00,,---,0.00,VWS V14.01,2013-12-20 00:24:00,
2013-12-19 19:25:00,48.0,30.3,30.26,South,191,0.0,0.0,50,0.00,,---,0.00,VWS V14.01,2013-12-20 00:25:00,
2013-12-19 19:29:00,47.6,29.9,30.26,South,191,0.0,0.0,50,0.00,,---,0.00,VWS V14.01,2013-12-20 00:29:00,
2013-12-19 19:30:00,47.6,29.9,30.26,South,191,0.0,0.0,50,0.00,,---,0.00,VWS V14.01,2013-12-20 00:30:00,
2013-12-19 19:35:00,47.4,27.7,30.25,South,191,0.0,0.0,46,0.00,,---,0.00,VWS V14.01,2013-12-20 00:35:00,
2013-12-19 19:39:00,47.3,27.0,30.25,South,191,0.0,0.0,45,0.00,,---,0.00,VWS V14.01,2013-12-20 00:39:00,
2013-12-19 19:40:00,47.3,27.0,30.25,South,191,0.0,0.0,45,0.00,,---,0.00,VWS V14.01,2013-12-20 00:40:00,
2013-12-19 19:44:00,47.7,26.9,30.25,South,191,0.0,0.0,44,0.00,,---,0.00,VWS V14.01,2013-12-20 00:44:00,
2013-12-19 19:45:00,47.7,26.9,30.25,South,191,0.0,0.0,44,0.00,,---,0.00,VWS V14.01,2013-12-20 00:45:00,
2013-12-19 19:49:00,47.9,28.1,30.26,South,191,0.0,1.0,46,0.00,,---,0.00,VWS V14.01,2013-12-20 00:49:00,
2013-12-19 19:50:00,47.9,28.1,30.26,South,191,0.0,1.0,46,0.00,,---,0.00,VWS V14.01,2013-12-20 00:50:00,
2013-12-19 19:54:00,47.7,30.0,30.26,South,191,0.0,0.0,50,0.00,,---,0.00,VWS V14.01,2013-12-20 00:54:00,
2013-12-19 19:55:00,47.7,30.0,30.26,South,191,0.0,0.0,50,0.00,,---,0.00,VWS V14.01,2013-12-20 00:55:00,
2013-12-19 19:59:00,47.5,28.8,30.26,South,191,0.0,1.0,48,0.00,,---,0.00,VWS V14.01,2013-12-20 00:59:00,
2013-12-19 20:00:00,47.5,28.8,30.26,South,191,0.0,1.0,48,0.00,,---,0.00,VWS V14.01,2013-12-20 01:00:00,
2013-12-19 20:04:00,47.3,27.6,30.26,South,191,0.0,1.0,46,0.00,,---,0.00,VWS V14.01,2013-12-20 01:04:00,
2013-12-19 20:05:00,47.3,27.6,30.26,South,191,0.0,1.0,46,0.00,,---,0.00,VWS V14.01,2013-12-20 01:05:00,
2013-12-19 20:09:00,47.4,27.7,30.25,South,191,0.0,1.0,46,0.00,,---,0.00,VWS V14.01,2013-12-20 01:09:00,
2013-12-19 20:10:00,47.4,27.7,30.25,South,191,0.0,1.0,46,0.00,,---,0.00,VWS V14.01,2013-12-20 01:10:00,
2013-12-19 20:14:00,47.1,29.9,30.25,South,191,0.0,1.0,51,0.00,,---,0.00,VWS V14.01,2013-12-20 01:14:00,
2013-12-19 20:15:00,47.1,29.9,30.25,South,191,0.0,1.0,51,0.00,,---,0.00,VWS V14.01,2013-12-20 01:15:00,
2013-12-19 20:19:00,46.5,29.8,30.25,South,191,0.0,0.0,52,0.00,,---,0.00,VWS V14.01,2013-12-20 01:19:00,
2013-12-19 20:20:00,46.5,29.8,30.25,South,191,0.0,0.0,52,0.00,,---,0.00,VWS V14.01,2013-12-20 01:20:00,
2013-12-19 20:25:00,45.8,28.7,30.25,South,191,0.0,1.0,51,0.00,,---,0.00,VWS V14.01,2013-12-20 01:25:00,
2013-12-19 20:29:00,45.2,29.6,30.25,South,191,0.0,1.0,54,0.00,,---,0.00,VWS V14.01,2013-12-20 01:29:00,
2013-12-19 20:30:00,45.2,29.6,30.25,South,191,0.0,1.0,54,0.00,,---,0.00,VWS V14.01,2013-12-20 01:30:00,
2013-12-19 20:34:00,44.6,30.3,30.25,South,191,0.0,0.0,57,0.00,,---,0.00,VWS V14.01,2013-12-20 01:34:00,
2013-12-19 20:35:00,44.6,30.3,30.25,South,191,0.0,0.0,57,0.00,,---,0.00,VWS V14.01,2013-12-20 01:35:00,
2013-12-19 20:39:00,44.0,29.8,30.25,South,191,0.0,0.0,57,0.00,,---,0.00,VWS V14.01,2013-12-20 01:39:00,
2013-12-19 20:40:00,44.0,29.8,30.25,South,191,0.0,0.0,57,0.00,,---,0.00,VWS V14.01,2013-12-20 01:40:00,
2013-12-19 20:44:00,43.4,29.6,30.25,South,191,0.0,0.0,58,0.00,,---,0.00,VWS V14.01,2013-12-20 01:44:00,
2013-12-19 20:45:00,43.4,29.6,30.25,South,191,0.0,0.0,58,0.00,,---,0.00,VWS V14.01,2013-12-20 01:45:00,
2013-12-19 20:49:00,43.1,30.2,30.25,South,191,0.0,0.0,60,0.00,,---,0.00,VWS V14.01,2013-12-20 01:49:00,
2013-12-19 20:50:00,43.1,30.2,30.25,South,191,0.0,0.0,60,0.00,,---,0.00,VWS V14.01,2013-12-20 01:50:00,
2013-12-19 20:54:00,42.7,29.8,30.26,South,191,0.0,0.0,60,0.00,,---,0.00,VWS V14.01,2013-12-20 01:54:00,
2013-12-19 20:55:00,42.7,29.8,30.26,South,191,0.0,0.0,60,0.00,,---,0.00,VWS V14.01,2013-12-20 01:55:00,
2013-12-19 21:00:00,42.4,29.5,30.25,South,191,0.0,0.0,60,0.00,,---,0.00,VWS V14.01,2013-12-20 02:00:00,
2013-12-19 21:04:00,42.1,29.2,30.25,South,191,0.0,0.0,60,0.00,,---,0.00,VWS V14.01,2013-12-20 02:04:00,
2013-12-19 21:05:00,42.1,29.2,30.25,South,191,0.0,0.0,60,0.00,,---,0.00,VWS V14.01,2013-12-20 02:05:00,
2013-12-19 21:09:00,42.1,29.6,30.25,South,191,0.0,0.0,61,0.00,,---,0.00,VWS V14.01,2013-12-20 02:09:00,
2013-12-19 21:10:00,42.1,29.6,30.25,South,191,0.0,0.0,61,0.00,,---,0.00,VWS V14.01,2013-12-20 02:10:00,
2013-12-19 21:14:00,42.2,29.3,30.26,South,191,0.0,0.0,60,0.00,,---,0.00,VWS V14.01,2013-12-20 02:14:00,
2013-12-19 21:15:00,42.2,29.3,30.26,South,191,0.0,0.0,60,0.00,,---,0.00,VWS V14.01,2013-12-20 02:15:00,
2013-12-19 21:19:00,42.1,30.0,30.26,South,191,0.0,0.0,62,0.00,,---,0.00,VWS V14.01,2013-12-20 02:19:00,
2013-12-19 21:20:00,42.1,30.0,30.26,South,191,0.0,0.0,62,0.00,,---,0.00,VWS V14.01,2013-12-20 02:20:00,
2013-12-19 21:24:00,42.0,29.1,30.26,South,191,0.0,0.0,60,0.00,,---,0.00,VWS V14.01,2013-12-20 02:24:00,
2013-12-19 21:25:00,42.0,29.1,30.26,South,191,0.0,0.0,60,0.00,,---,0.00,VWS V14.01,2013-12-20 02:25:00,
2013-12-19 21:30:00,42.1,28.4,30.25,South,191,0.0,0.0,58,0.00,,---,0.00,VWS V14.01,2013-12-20 02:30:00,
2013-12-19 21:34:00,42.4,29.5,30.25,South,191,0.0,0.0,60,0.00,,---,0.00,VWS V14.01,2013-12-20 02:34:00,
2013-12-19 21:35:00,42.4,29.5,30.25,South,191,0.0,0.0,60,0.00,,---,0.00,VWS V14.01,2013-12-20 02:35:00,
2013-12-19 21:39:00,42.4,29.1,30.25,South,191,0.0,0.0,59,0.00,,---,0.00,VWS V14.01,2013-12-20 02:39:00,
2013-12-19 21:40:00,42.4,29.1,30.25,South,191,0.0,0.0,59,0.00,,---,0.00,VWS V14.01,2013-12-20 02:40:00,
2013-12-19 21:44:00,42.2,30.1,30.25,South,191,0.0,0.0,62,0.00,,---,0.00,VWS V14.01,2013-12-20 02:44:00,
2013-12-19 21:45:00,42.2,30.1,30.25,South,191,0.0,0.0,62,0.00,,---,0.00,VWS V14.01,2013-12-20 02:45:00,
2013-12-19 21:49:00,41.9,30.2,30.25,South,191,0.0,0.0,63,0.00,,---,0.00,VWS V14.01,2013-12-20 02:49:00,
2013-12-19 21:50:00,41.9,30.2,30.25,South,191,0.0,0.0,63,0.00,,---,0.00,VWS V14.01,2013-12-20 02:50:00,
2013-12-19 21:54:00,41.6,29.6,30.25,South,191,0.0,0.0,62,0.00,,---,0.00,VWS V14.01,2013-12-20 02:54:00,
2013-12-19 21:55:00,41.6,29.6,30.25,South,191,0.0,0.0,62,0.00,,---,0.00,VWS V14.01,2013-12-20 02:55:00,
2013-12-19 22:00:00,41.3,29.3,30.26,South,191,0.0,0.0,62,0.00,,---,0.00,VWS V14.01,2013-12-20 03:00:00,
2013-12-19 22:04:00,41.0,29.0,30.25,South,191,0.0,0.0,62,0.00,,---,0.00,VWS V14.01,2013-12-20 03:04:00,
2013-12-19 22:05:00,41.0,29.0,30.25,South,191,0.0,0.0,62,0.00,,---,0.00,VWS V14.01,2013-12-20 03:05:00,
2013-12-19 22:09:00,41.2,29.2,30.24,South,191,0.0,0.0,62,0.00,,---,0.00,VWS V14.01,2013-12-20 03:09:00,
2013-12-19 22:10:00,41.2,29.2,30.24,South,191,0.0,0.0,62,0.00,,---,0.00,VWS V14.01,2013-12-20 03:10:00,
2013-12-19 22:14:00,41.0,30.5,30.25,South,191,0.0,0.0,66,0.00,,---,0.00,VWS V14.01,2013-12-20 03:14:00,
2013-12-19 22:15:00,41.0,30.5,30.25,South,191,0.0,0.0,66,0.00,,---,0.00,VWS V14.01,2013-12-20 03:15:00,
2013-12-19 22:19:00,40.6,29.4,30.24,South,191,0.0,0.0,64,0.00,,---,0.00,VWS V14.01,2013-12-20 03:19:00,
2013-12-19 22:20:00,40.6,29.4,30.24,South,191,0.0,0.0,64,0.00,,---,0.00,VWS V14.01,2013-12-20 03:20:00,
2013-12-19 22:24:00,40.4,29.6,30.25,South,191,0.0,0.0,65,0.00,,---,0.00,VWS V14.01,2013-12-20 03:24:00,
2013-12-19 22:25:00,40.4,29.6,30.25,South,191,0.0,0.0,65,0.00,,---,0.00,VWS V14.01,2013-12-20 03:25:00,
2013-12-19 22:29:00,40.3,29.5,30.25,South,191,0.0,0.0,65,0.00,,---,0.00,VWS V14.01,2013-12-20 03:29:00,
2013-12-19 22:30:00,40.3,29.5,30.25,South,191,0.0,0.0,65,0.00,,---,0.00,VWS V14.01,2013-12-20 03:30:00,
2013-12-19 22:34:00,40.2,28.6,30.26,South,191,0.0,0.0,63,0.00,,---,0.00,VWS V14.01,2013-12-20 03:34:00,
2013-12-19 22:35:00,40.2,28.6,30.26,South,191,0.0,0.0,63,0.00,,---,0.00,VWS V14.01,2013-12-20 03:35:00,
2013-12-19 22:39:00,40.5,28.9,30.26,South,191,0.0,0.0,63,0.00,,---,0.00,VWS V14.01,2013-12-20 03:39:00,
2013-12-19 22:40:00,40.5,28.9,30.26,South,191,0.0,0.0,63,0.00,,---,0.00,VWS V14.01,2013-12-20 03:40:00,
2013-12-19 22:44:00,41.0,28.2,30.26,South,191,0.0,1.0,60,0.00,,---,0.00,VWS V14.01,2013-12-20 03:44:00,
2013-12-19 22:45:00,41.0,28.2,30.26,South,191,0.0,1.0,60,0.00,,---,0.00,VWS V14.01,2013-12-20 03:45:00,
2013-12-19 22:49:00,41.6,29.2,30.26,South,191,0.0,1.0,61,0.00,,---,0.00,VWS V14.01,2013-12-20 03:49:00,
2013-12-19 22:50:00,41.6,29.2,30.26,South,191,0.0,1.0,61,0.00,,---,0.00,VWS V14.01,2013-12-20 03:50:00,
2013-12-19 22:54:00,42.1,30.0,30.26,South,191,0.0,0.0,62,0.00,,---,0.00,VWS V14.01,2013-12-20 03:54:00,
2013-12-19 22:55:00,42.1,30.0,30.26,South,191,0.0,0.0,62,0.00,,---,0.00,VWS V14.01,2013-12-20 03:55:00,
2013-12-19 23:00:00,42.2,30.1,30.25,South,191,0.0,1.0,62,0.00,,---,0.00,VWS V14.01,2013-12-20 04:00:00,
2013-12-19 23:04:00,41.8,30.9,30.26,South,191,0.0,1.0,65,0.00,,---,0.00,VWS V14.01,2013-12-20 04:04:00,
2013-12-19 23:05:00,41.8,30.9,30.26,South,191,0.0,1.0,65,0.00,,---,0.00,VWS V14.01,2013-12-20 04:05:00,
2013-12-19 23:10:00,41.9,29.9,30.25,South,191,0.0,1.0,62,0.00,,---,0.00,VWS V14.01,2013-12-20 04:10:00,
2013-12-19 23:14:00,42.5,30.0,30.25,South,191,0.0,1.0,61,0.00,,---,0.00,VWS V14.01,2013-12-20 04:14:00,
2013-12-19 23:15:00,42.5,30.0,30.25,South,191,0.0,1.0,61,0.00,,---,0.00,VWS V14.01,2013-12-20 04:15:00,
2013-12-19 23:19:00,43.0,30.5,30.25,South,191,0.0,0.0,61,0.00,,---,0.00,VWS V14.01,2013-12-20 04:19:00,
2013-12-19 23:20:00,43.0,30.5,30.25,South,191,0.0,0.0,61,0.00,,---,0.00,VWS V14.01,2013-12-20 04:20:00,
2013-12-19 23:25:00,43.3,30.0,30.26,South,191,2.0,2.0,59,0.00,,---,0.00,VWS V14.01,2013-12-20 04:25:00,
2013-12-19 23:29:00,43.7,29.9,30.26,South,191,1.0,3.0,58,0.00,,---,0.00,VWS V14.01,2013-12-20 04:29:00,
2013-12-19 23:30:00,43.7,29.9,30.26,South,191,1.0,3.0,58,0.00,,---,0.00,VWS V14.01,2013-12-20 04:30:00,
2013-12-19 23:34:00,44.3,30.0,30.25,South,191,0.0,4.0,57,0.00,,---,0.00,VWS V14.01,2013-12-20 04:34:00,
2013-12-19 23:35:00,44.3,30.0,30.25,South,191,0.0,4.0,57,0.00,,---,0.00,VWS V14.01,2013-12-20 04:35:00,
2013-12-19 23:39:00,44.8,30.1,30.25,West,273,0.0,4.0,56,0.00,,---,0.00,VWS V14.01,2013-12-20 04:39:00,
2013-12-19 23:40:00,44.8,30.1,30.25,West,273,0.0,4.0,56,0.00,,---,0.00,VWS V14.01,2013-12-20 04:40:00,
2013-12-19 23:44:00,45.1,30.4,30.25,West,273,0.0,1.0,56,0.00,,---,0.00,VWS V14.01,2013-12-20 04:44:00,
2013-12-19 23:45:00,45.1,30.4,30.25,West,273,0.0,1.0,56,0.00,,---,0.00,VWS V14.01,2013-12-20 04:45:00,
2013-12-19 23:49:00,45.0,30.7,30.25,West,273,0.0,2.0,57,0.00,,---,0.00,VWS V14.01,2013-12-20 04:49:00,
2013-12-19 23:50:00,45.0,30.7,30.25,West,273,0.0,2.0,57,0.00,,---,0.00,VWS V14.01,2013-12-20 04:50:00,
2013-12-19 23:54:00,44.9,30.2,30.25,SW,232,0.0,3.0,56,0.00,,---,0.00,VWS V14.01,2013-12-20 04:54:00,
2013-12-19 23:55:00,44.9,30.2,30.25,SW,232,0.0,3.0,56,0.00,,---,0.00,VWS V14.01,2013-12-20 04:55:00,
2013-12-19 23:59:00,45.2,30.9,30.25,SW,231,0.0,2.0,57,0.00,,---,0.00,VWS V14.01,2013-12-20 04:59:00,